Time,TemperatureF,DewpointF,PressureIn,WindDirection,WindDirectionDegrees,WindSpeedMPH,WindSpeedGustMPH,Humidity,HourlyPrecipIn,Conditions,Clouds,dailyrainin,SoftwareType,DateUTC
2013-04-12 00:00:00,41.0,39.1,29.73,East,90,4.0,12.0,93,0.00,,---,0.08,VWS V14.01,2013-04-12 04:00:00,
2013-04-12 00:02:00,41.0,39.1,29.73,ESE,112,2.0,10.0,93,0.00,,---,0.00,VWS V14.01,2013-04-12 04:02:00,
2013-04-12 00:07:00,41.0,39.1,29.72,ENE,68,5.0,10.0,93,0.00,,---,0.00,VWS V14.01,2013-04-12 04:07:00,
2013-04-12 00:12:00,41.0,39.1,29.72,ENE,68,2.0,12.0,93,0.00,,---,0.00,VWS V14.01,2013-04-12 04:12:00,
2013-04-12 00:17:00,41.0,39.1,29.72,ENE,68,5.0,12.0,93,0.00,,---,0.00,VWS V14.01,2013-04-12 04:17:00,
2013-04-12 00:22:00,41.0,39.1,29.71,East,90,7.0,11.0,93,0.00,,---,0.00,VWS V14.01,2013-04-12 04:22:00,
2013-04-12 00:27:00,41.0,39.1,29.70,ENE,68,10.0,13.0,93,0.00,,---,0.00,VWS V14.01,2013-04-12 04:27:00,
2013-04-12 00:33:00,41.0,39.4,29.70,ESE,112,3.0,13.0,94,0.00,,---,0.00,VWS V14.01,2013-04-12 04:33:00,
2013-04-12 00:38:00,41.0,39.4,29.70,East,90,6.0,13.0,94,0.00,,---,0.00,VWS V14.01,2013-04-12 04:38:00,
2013-04-12 00:43:00,41.0,39.4,29.70,ENE,68,3.0,11.0,94,0.00,,---,0.00,VWS V14.01,2013-04-12 04:43:00,
2013-04-12 00:48:00,41.0,39.4,29.70,East,90,7.0,11.0,94,0.00,,---,0.00,VWS V14.01,2013-04-12 04:48:00,
2013-04-12 00:53:00,42.0,40.4,29.69,NE,45,8.0,16.0,94,0.00,,---,0.00,VWS V14.01,2013-04-12 04:53:00,
2013-04-12 00:58:00,42.0,40.4,29.69,ESE,112,5.0,16.0,94,0.00,,---,0.00,VWS V14.01,2013-04-12 04:58:00,
2013-04-12 01:03:00,42.0,40.4,29.69,ESE,112,3.0,10.0,94,0.00,,---,0.00,VWS V14.01,2013-04-12 05:03:00,
2013-04-12 01:08:00,42.0,40.1,29.68,East,90,8.0,10.0,93,0.00,,---,0.00,VWS V14.01,2013-04-12 05:08:00,
2013-04-12 01:13:00,42.0,40.1,29.68,East,90,3.0,13.0,93,0.00,,---,0.00,VWS V14.01,2013-04-12 05:13:00,
2013-04-12 01:19:00,42.0,40.1,29.68,ESE,112,5.0,13.0,93,0.00,,---,0.00,VWS V14.01,2013-04-12 05:19:00,
2013-04-12 01:24:00,43.0,41.1,29.67,ENE,68,6.0,13.0,93,0.00,,---,0.00,VWS V14.01,2013-04-12 05:24:00,
2013-04-12 01:29:00,43.0,41.1,29.67,East,90,7.0,13.0,93,0.00,,---,0.00,VWS V14.01,2013-04-12 05:29:00,
2013-04-12 01:34:00,43.0,41.1,29.66,ESE,112,3.0,13.0,93,0.00,,---,0.00,VWS V14.01,2013-04-12 05:34:00,
2013-04-12 01:39:00,43.0,41.1,29.66,ENE,68,3.0,13.0,93,0.00,,---,0.00,VWS V14.01,2013-04-12 05:39:00,
2013-04-12 01:44:00,43.0,41.1,29.65,ESE,112,5.0,12.0,93,0.00,,---,0.00,VWS V14.01,2013-04-12 05:44:00,
2013-04-12 01:49:00,43.0,41.1,29.65,ESE,112,3.0,13.0,93,0.00,,---,0.00,VWS V14.01,2013-04-12 05:49:00,
2013-04-12 01:54:00,43.0,41.1,29.64,ESE,112,8.0,16.0,93,0.00,,---,0.00,VWS V14.01,2013-04-12 05:54:00,
2013-04-12 02:00:00,44.0,42.1,29.64,SE,135,19.0,23.0,93,0.00,,---,0.00,VWS V14.01,2013-04-12 06:00:00,
2013-04-12 02:05:00,44.0,42.1,29.63,ESE,112,5.0,16.0,93,0.00,,---,0.00,VWS V14.01,2013-04-12 06:05:00,
2013-04-12 02:10:00,44.0,42.1,29.63,ESE,112,5.0,19.0,93,0.00,,---,0.00,VWS V14.01,2013-04-12 06:10:00,
2013-04-12 02:15:00,44.0,42.1,29.62,ESE,112,3.0,19.0,93,0.00,,---,0.00,VWS V14.01,2013-04-12 06:15:00,
2013-04-12 02:20:00,44.0,42.1,29.62,ESE,112,3.0,3.0,93,0.00,,---,0.00,VWS V14.01,2013-04-12 06:20:00,
2013-04-12 02:25:00,44.0,42.1,29.62,ESE,112,5.0,16.0,93,0.00,,---,0.00,VWS V14.01,2013-04-12 06:25:00,
2013-04-12 02:30:00,44.0,42.1,29.61,SE,135,12.0,16.0,93,0.00,,---,0.00,VWS V14.01,2013-04-12 06:30:00,
2013-04-12 02:35:00,45.0,43.1,29.61,SSE,158,10.0,16.0,93,0.00,,---,0.00,VWS V14.01,2013-04-12 06:35:00,
2013-04-12 02:40:00,45.0,43.1,29.60,East,90,9.0,11.0,93,0.00,,---,0.00,VWS V14.01,2013-04-12 06:40:00,
2013-04-12 02:46:00,45.0,43.1,29.60,ESE,112,6.0,13.0,93,0.00,,---,0.00,VWS V14.01,2013-04-12 06:46:00,
2013-04-12 02:51:00,45.0,43.1,29.59,ESE,112,2.0,13.0,93,0.00,,---,0.00,VWS V14.01,2013-04-12 06:51:00,
2013-04-12 02:56:00,45.0,43.1,29.59,East,90,6.0,16.0,93,0.00,,---,0.00,VWS V14.01,2013-04-12 06:56:00,
2013-04-12 03:01:00,46.0,44.4,29.59,ESE,112,8.0,10.0,94,0.00,,---,0.00,VWS V14.01,2013-04-12 07:01:00,
2013-04-12 03:06:00,46.0,44.1,29.58,ESE,112,3.0,16.0,93,0.00,,---,0.00,VWS V14.01,2013-04-12 07:06:00,
2013-04-12 03:11:00,47.0,45.4,29.58,SE,135,15.0,19.0,94,0.00,,---,0.00,VWS V14.01,2013-04-12 07:11:00,
2013-04-12 03:16:00,47.0,45.1,29.58,SE,135,13.0,21.0,93,0.00,,---,0.00,VWS V14.01,2013-04-12 07:16:00,
2013-04-12 03:21:00,47.0,45.1,29.57,ESE,112,8.0,16.0,93,0.00,,---,0.00,VWS V14.01,2013-04-12 07:21:00,
2013-04-12 03:26:00,47.0,45.1,29.57,SE,135,16.0,19.0,93,0.00,,---,0.00,VWS V14.01,2013-04-12 07:26:00,
2013-04-12 03:32:00,48.0,46.1,29.57,ESE,112,5.0,23.0,93,0.00,,---,0.00,VWS V14.01,2013-04-12 07:32:00,
2013-04-12 03:37:00,48.0,46.1,29.56,SE,135,12.0,23.0,93,0.00,,---,0.00,VWS V14.01,2013-04-12 07:37:00,
2013-04-12 03:42:00,48.0,46.1,29.56,SSE,158,13.0,15.0,93,0.00,,---,0.00,VWS V14.01,2013-04-12 07:42:00,
2013-04-12 03:47:00,48.0,46.1,29.56,SE,135,11.0,26.0,93,0.00,,---,0.00,VWS V14.01,2013-04-12 07:47:00,
2013-04-12 03:52:00,48.0,46.1,29.55,SE,135,16.0,26.0,93,0.00,,---,0.00,VWS V14.01,2013-04-12 07:52:00,
2013-04-12 03:57:00,48.0,46.4,29.55,SE,135,17.0,26.0,94,0.00,,---,0.00,VWS V14.01,2013-04-12 07:57:00,
2013-04-12 04:02:00,48.0,46.1,29.56,SE,135,11.0,14.0,93,0.00,,---,0.00,VWS V14.01,2013-04-12 08:02:00,
2013-04-12 04:07:00,48.0,46.1,29.56,SE,135,6.0,16.0,93,0.00,,---,0.00,VWS V14.01,2013-04-12 08:07:00,
2013-04-12 04:12:00,48.0,46.4,29.56,SSE,158,13.0,16.0,94,0.00,,---,0.00,VWS V14.01,2013-04-12 08:12:00,
2013-04-12 04:18:00,48.0,46.4,29.56,SE,135,13.0,18.0,94,0.00,,---,0.00,VWS V14.01,2013-04-12 08:18:00,
2013-04-12 04:23:00,48.0,46.4,29.56,SSE,158,10.0,19.0,94,0.00,,---,0.00,VWS V14.01,2013-04-12 08:23:00,
2013-04-12 04:28:00,49.0,47.3,29.56,SSE,158,13.0,22.0,94,0.01,,---,0.01,VWS V14.01,2013-04-12 08:28:00,
2013-04-12 04:33:00,49.0,47.3,29.56,SE,135,19.0,23.0,94,0.01,,---,0.01,VWS V14.01,2013-04-12 08:33:00,
2013-04-12 04:38:00,49.0,47.3,29.56,SSE,158,10.0,23.0,94,0.01,,---,0.01,VWS V14.01,2013-04-12 08:38:00,
2013-04-12 04:43:00,49.0,47.3,29.56,SE,135,12.0,13.0,94,0.01,,---,0.01,VWS V14.01,2013-04-12 08:43:00,
2013-04-12 04:48:00,49.0,47.3,29.56,SE,135,10.0,23.0,94,0.01,,---,0.01,VWS V14.01,2013-04-12 08:48:00,
2013-04-12 04:53:00,49.0,47.3,29.56,ESE,112,2.0,23.0,94,0.01,,---,0.01,VWS V14.01,2013-04-12 08:53:00,
2013-04-12 04:58:00,49.0,47.3,29.57,South,180,13.0,23.0,94,0.01,,---,0.01,VWS V14.01,2013-04-12 08:58:00,
2013-04-12 05:03:00,49.0,47.3,29.56,SE,135,6.0,13.0,94,0.02,,---,0.02,VWS V14.01,2013-04-12 09:03:00,
2013-04-12 05:08:00,49.0,47.3,29.56,SE,135,4.0,13.0,94,0.02,,---,0.02,VWS V14.01,2013-04-12 09:08:00,
2013-04-12 05:14:00,49.0,47.3,29.56,SE,135,6.0,13.0,94,0.02,,---,0.02,VWS V14.01,2013-04-12 09:14:00,
2013-04-12 05:19:00,50.0,48.3,29.55,South,180,3.0,13.0,94,0.02,,---,0.02,VWS V14.01,2013-04-12 09:19:00,
2013-04-12 05:24:00,50.0,48.3,29.55,SSE,158,9.0,10.0,94,0.02,,---,0.02,VWS V14.01,2013-04-12 09:24:00,
2013-04-12 05:29:00,50.0,48.3,29.55,SE,135,3.0,16.0,94,0.02,,---,0.02,VWS V14.01,2013-04-12 09:29:00,
2013-04-12 05:34:00,50.0,48.3,29.54,SE,135,5.0,16.0,94,0.03,,---,0.03,VWS V14.01,2013-04-12 09:34:00,
2013-04-12 05:39:00,50.0,48.3,29.54,SSE,158,5.0,16.0,94,0.03,,---,0.03,VWS V14.01,2013-04-12 09:39:00,
2013-04-12 05:44:00,50.0,48.3,29.54,SE,135,6.0,14.0,94,0.03,,---,0.04,VWS V14.01,2013-04-12 09:44:00,
2013-04-12 05:49:00,50.0,48.3,29.54,SSW,202,5.0,14.0,94,0.03,,---,0.04,VWS V14.01,2013-04-12 09:49:00,
2013-04-12 05:54:00,50.0,48.6,29.54,SSE,158,10.0,14.0,95,0.04,,---,0.05,VWS V14.01,2013-04-12 09:54:00,
2013-04-12 05:59:00,50.0,48.6,29.54,SE,135,12.0,14.0,95,0.04,,---,0.05,VWS V14.01,2013-04-12 09:59:00,
2013-04-12 06:04:00,50.0,48.6,29.53,SE,135,11.0,17.0,95,0.05,,---,0.07,VWS V14.01,2013-04-12 10:04:00,
2013-04-12 06:09:00,50.0,48.6,29.53,SE,135,8.0,17.0,95,0.07,,---,0.09,VWS V14.01,2013-04-12 10:09:00,
2013-04-12 06:14:00,50.0,48.6,29.52,SE,135,14.0,17.0,95,0.08,,---,0.10,VWS V14.01,2013-04-12 10:14:00,
2013-04-12 06:19:00,50.0,48.6,29.52,SSE,158,9.0,17.0,95,0.09,,---,0.11,VWS V14.01,2013-04-12 10:19:00,
2013-04-12 06:24:00,50.0,48.6,29.52,SE,135,8.0,15.0,95,0.09,,---,0.11,VWS V14.01,2013-04-12 10:24:00,
2013-04-12 06:29:00,50.0,48.6,29.51,SE,135,13.0,15.0,95,0.10,,---,0.12,VWS V14.01,2013-04-12 10:29:00,
2013-04-12 06:35:00,50.0,48.6,29.52,SE,135,9.0,17.0,95,0.10,,---,0.12,VWS V14.01,2013-04-12 10:35:00,
2013-04-12 06:40:00,50.0,48.6,29.51,SSE,158,10.0,17.0,95,0.11,,---,0.13,VWS V14.01,2013-04-12 10:40:00,
2013-04-12 06:45:00,50.0,48.6,29.51,SSE,158,11.0,14.0,95,0.10,,---,0.13,VWS V14.01,2013-04-12 10:45:00,
2013-04-12 06:50:00,50.0,48.6,29.51,SE,135,10.0,14.0,95,0.10,,---,0.13,VWS V14.01,2013-04-12 10:50:00,
2013-04-12 06:55:00,50.0,48.6,29.51,SE,135,8.0,14.0,95,0.11,,---,0.14,VWS V14.01,2013-04-12 10:55:00,
2013-04-12 07:00:00,50.0,48.6,29.51,SSE,158,10.0,16.0,95,0.12,,---,0.15,VWS V14.01,2013-04-12 11:00:00,
2013-04-12 07:05:00,50.0,48.6,29.51,SE,135,13.0,16.0,95,0.10,,---,0.16,VWS V14.01,2013-04-12 11:05:00,
2013-04-12 07:10:00,50.0,48.6,29.51,SSE,158,10.0,18.0,95,0.10,,---,0.16,VWS V14.01,2013-04-12 11:10:00,
2013-04-12 07:15:00,50.0,48.9,29.52,South,180,7.0,18.0,96,0.11,,---,0.17,VWS V14.01,2013-04-12 11:15:00,
2013-04-12 07:20:00,50.0,48.9,29.51,SE,135,9.0,11.0,96,0.07,,---,0.18,VWS V14.01,2013-04-12 11:20:00,
2013-04-12 07:25:00,50.0,48.9,29.51,SE,135,11.0,16.0,96,0.08,,---,0.19,VWS V14.01,2013-04-12 11:25:00,
2013-04-12 07:30:00,50.0,48.9,29.51,SSE,158,6.0,17.0,96,0.11,,---,0.22,VWS V14.01,2013-04-12 11:30:00,
2013-04-12 07:35:00,50.0,48.9,29.51,SSE,158,11.0,17.0,96,0.12,,---,0.23,VWS V14.01,2013-04-12 11:35:00,
2013-04-12 07:41:00,50.0,48.9,29.51,SE,135,10.0,18.0,96,0.11,,---,0.24,VWS V14.01,2013-04-12 11:41:00,
2013-04-12 07:46:00,50.0,48.9,29.51,SSE,158,9.0,18.0,96,0.12,,---,0.25,VWS V14.01,2013-04-12 11:46:00,
2013-04-12 07:51:00,50.0,48.9,29.51,SE,135,12.0,18.0,96,0.13,,---,0.26,VWS V14.01,2013-04-12 11:51:00,
2013-04-12 07:56:00,50.0,48.9,29.51,SE,135,11.0,18.0,96,0.14,,---,0.27,VWS V14.01,2013-04-12 11:56:00,
2013-04-12 08:01:00,50.0,48.9,29.51,ESE,112,8.0,11.0,96,0.13,,---,0.28,VWS V14.01,2013-04-12 12:01:00,
2013-04-12 08:06:00,50.0,48.9,29.51,ESE,112,7.0,17.0,96,0.13,,---,0.28,VWS V14.01,2013-04-12 12:06:00,
2013-04-12 08:11:00,50.0,48.9,29.50,SE,135,11.0,17.0,96,0.14,,---,0.29,VWS V14.01,2013-04-12 12:11:00,
2013-04-12 08:17:00,50.0,48.9,29.50,SE,135,10.0,19.0,96,0.15,,---,0.30,VWS V14.01,2013-04-12 12:17:00,
2013-04-12 08:22:00,50.0,48.9,29.50,SSE,158,8.0,20.0,96,0.12,,---,0.30,VWS V14.01,2013-04-12 12:22:00,
2013-04-12 08:27:00,50.0,48.6,29.50,SE,135,10.0,20.0,95,0.12,,---,0.30,VWS V14.01,2013-04-12 12:27:00,
2013-04-12 08:32:00,50.0,48.6,29.50,SE,135,8.0,21.0,95,0.13,,---,0.31,VWS V14.01,2013-04-12 12:32:00,
2013-04-12 08:37:00,50.0,48.6,29.50,SE,135,19.0,21.0,95,0.13,,---,0.31,VWS V14.01,2013-04-12 12:37:00,
2013-04-12 08:42:00,50.0,48.6,29.50,SE,135,10.0,24.0,95,0.08,,---,0.32,VWS V14.01,2013-04-12 12:42:00,
2013-04-12 08:47:00,50.0,48.6,29.50,SE,135,11.0,24.0,95,0.10,,---,0.34,VWS V14.01,2013-04-12 12:47:00,
2013-04-12 08:53:00,50.0,48.6,29.50,SE,135,13.0,24.0,95,0.12,,---,0.36,VWS V14.01,2013-04-12 12:53:00,
2013-04-12 08:58:00,50.0,48.6,29.51,SSE,158,11.0,24.0,95,0.14,,---,0.38,VWS V14.01,2013-04-12 12:58:00,
2013-04-12 09:03:00,50.0,48.6,29.51,South,180,14.0,20.0,95,0.12,,---,0.39,VWS V14.01,2013-04-12 13:03:00,
2013-04-12 09:08:00,50.0,48.6,29.51,SE,135,8.0,20.0,95,0.13,,---,0.40,VWS V14.01,2013-04-12 13:08:00,
2013-04-12 09:13:00,50.0,48.6,29.51,SSE,158,9.0,20.0,95,0.13,,---,0.40,VWS V14.01,2013-04-12 13:13:00,
2013-04-12 09:18:00,50.0,48.6,29.51,SE,135,14.0,21.0,95,0.14,,---,0.41,VWS V14.01,2013-04-12 13:18:00,
2013-04-12 09:23:00,50.0,48.6,29.50,SSE,158,8.0,19.0,95,0.11,,---,0.41,VWS V14.01,2013-04-12 13:23:00,
2013-04-12 09:28:00,50.0,48.6,29.50,SSE,158,13.0,22.0,95,0.12,,---,0.42,VWS V14.01,2013-04-12 13:28:00,
2013-04-12 09:33:00,50.0,48.6,29.50,SSE,158,11.0,22.0,95,0.12,,---,0.42,VWS V14.01,2013-04-12 13:33:00,
2013-04-12 09:39:00,50.0,48.6,29.49,SSE,158,12.0,22.0,95,0.12,,---,0.42,VWS V14.01,2013-04-12 13:39:00,
2013-04-12 09:44:00,50.0,48.6,29.49,SSE,158,10.0,15.0,95,0.10,,---,0.42,VWS V14.01,2013-04-12 13:44:00,
2013-04-12 09:49:00,50.0,48.6,29.49,SE,135,5.0,15.0,95,0.10,,---,0.42,VWS V14.01,2013-04-12 13:49:00,
2013-04-12 09:54:00,50.0,48.6,29.49,South,180,3.0,16.0,95,0.10,,---,0.42,VWS V14.01,2013-04-12 13:54:00,
2013-04-12 09:59:00,50.0,48.6,29.49,SE,135,8.0,16.0,95,0.10,,---,0.42,VWS V14.01,2013-04-12 13:59:00,
2013-04-12 10:04:00,51.0,49.6,29.49,SSE,158,9.0,11.0,95,0.04,,---,0.43,VWS V14.01,2013-04-12 14:04:00,
2013-04-12 10:09:00,51.0,49.6,29.49,SSE,158,5.0,12.0,95,0.04,,---,0.43,VWS V14.01,2013-04-12 14:09:00,
2013-04-12 10:14:00,51.0,49.6,29.49,SE,135,11.0,15.0,95,0.04,,---,0.43,VWS V14.01,2013-04-12 14:14:00,
2013-04-12 10:19:00,51.0,49.6,29.49,SE,135,13.0,18.0,95,0.04,,---,0.43,VWS V14.01,2013-04-12 14:19:00,
2013-04-12 10:25:00,51.0,49.6,29.49,SE,135,6.0,18.0,95,0.02,,---,0.43,VWS V14.01,2013-04-12 14:25:00,
2013-04-12 10:30:00,51.0,49.6,29.49,SE,135,5.0,18.0,95,0.02,,---,0.43,VWS V14.01,2013-04-12 14:30:00,
2013-04-12 10:35:00,51.0,49.6,29.49,SSE,158,9.0,18.0,95,0.02,,---,0.43,VWS V14.01,2013-04-12 14:35:00,
2013-04-12 10:40:00,51.0,49.3,29.49,SE,135,10.0,18.0,94,0.02,,---,0.43,VWS V14.01,2013-04-12 14:40:00,
2013-04-12 10:45:00,51.0,49.3,29.49,SSE,158,8.0,17.0,94,0.01,,---,0.43,VWS V14.01,2013-04-12 14:45:00,
2013-04-12 10:50:00,51.0,49.3,29.49,SE,135,8.0,18.0,94,0.01,,---,0.43,VWS V14.01,2013-04-12 14:50:00,
2013-04-12 10:55:00,51.0,49.3,29.49,SE,135,11.0,18.0,94,0.02,,---,0.44,VWS V14.01,2013-04-12 14:55:00,
2013-04-12 11:00:00,51.0,49.6,29.49,SE,135,10.0,18.0,95,0.02,,---,0.44,VWS V14.01,2013-04-12 15:00:00,
2013-04-12 11:05:00,51.0,49.6,29.49,SE,135,11.0,16.0,95,0.02,,---,0.44,VWS V14.01,2013-04-12 15:05:00,
2013-04-12 11:10:00,51.0,49.6,29.50,SE,135,10.0,16.0,95,0.02,,---,0.44,VWS V14.01,2013-04-12 15:10:00,
2013-04-12 11:15:00,51.0,49.6,29.50,SE,135,8.0,16.0,95,0.02,,---,0.44,VWS V14.01,2013-04-12 15:15:00,
2013-04-12 11:20:00,51.0,49.6,29.50,SSE,158,13.0,14.0,95,0.01,,---,0.44,VWS V14.01,2013-04-12 15:20:00,
2013-04-12 11:25:00,51.0,49.6,29.50,SSE,158,14.0,18.0,95,0.01,,---,0.44,VWS V14.01,2013-04-12 15:25:00,
2013-04-12 11:30:00,51.0,49.6,29.50,SSE,158,9.0,18.0,95,0.01,,---,0.44,VWS V14.01,2013-04-12 15:30:00,
2013-04-12 11:36:00,52.0,50.6,29.51,SSE,158,11.0,18.0,95,0.01,,---,0.44,VWS V14.01,2013-04-12 15:36:00,
2013-04-12 11:41:00,52.0,50.6,29.51,South,180,11.0,12.0,95,0.01,,---,0.44,VWS V14.01,2013-04-12 15:41:00,
2013-04-12 11:46:00,52.0,50.6,29.51,SE,135,10.0,16.0,95,0.01,,---,0.44,VWS V14.01,2013-04-12 15:46:00,
2013-04-12 11:51:00,52.0,50.6,29.51,SE,135,7.0,16.0,95,0.01,,---,0.44,VWS V14.01,2013-04-12 15:51:00,
2013-04-12 11:56:00,52.0,50.6,29.51,SSE,158,8.0,16.0,95,0.01,,---,0.44,VWS V14.01,2013-04-12 15:56:00,
2013-04-12 12:01:00,52.0,50.6,29.52,SE,135,6.0,10.0,95,0.00,,---,0.44,VWS V14.01,2013-04-12 16:01:00,
2013-04-12 12:07:00,52.0,50.6,29.52,South,180,6.0,13.0,95,0.00,,---,0.44,VWS V14.01,2013-04-12 16:07:00,
2013-04-12 12:12:00,52.0,50.6,29.52,SSW,202,2.0,13.0,95,0.00,,---,0.44,VWS V14.01,2013-04-12 16:12:00,
2013-04-12 12:17:00,53.0,51.9,29.54,WNW,292,3.0,13.0,96,0.00,,---,0.44,VWS V14.01,2013-04-12 16:17:00,
2013-04-12 12:22:00,48.0,45.2,29.55,North,0,7.0,13.0,90,0.00,,---,0.44,VWS V14.01,2013-04-12 16:22:00,
2013-04-12 12:27:00,46.0,43.8,29.56,NNW,338,6.0,19.0,92,0.01,,---,0.45,VWS V14.01,2013-04-12 16:27:00,
2013-04-12 12:32:00,46.0,44.4,29.56,WNW,292,4.0,19.0,94,0.01,,---,0.45,VWS V14.01,2013-04-12 16:32:00,
2013-04-12 12:37:00,46.0,44.7,29.56,NNW,338,8.0,19.0,95,0.01,,---,0.45,VWS V14.01,2013-04-12 16:37:00,
2013-04-12 12:43:00,45.0,43.9,29.57,West,270,7.0,11.0,96,0.02,,---,0.46,VWS V14.01,2013-04-12 16:43:00,
2013-04-12 12:48:00,46.0,45.2,29.57,WNW,292,5.0,13.0,97,0.02,,---,0.46,VWS V14.01,2013-04-12 16:48:00,
2013-04-12 12:53:00,46.0,45.2,29.58,WNW,292,7.0,13.0,97,0.02,,---,0.46,VWS V14.01,2013-04-12 16:53:00,
2013-04-12 12:58:00,46.0,45.2,29.58,NW,315,5.0,14.0,97,0.02,,---,0.46,VWS V14.01,2013-04-12 16:58:00,
2013-04-12 13:03:00,46.0,45.2,29.58,NW,315,6.0,9.0,97,0.02,,---,0.46,VWS V14.01,2013-04-12 17:03:00,
2013-04-12 13:08:00,46.0,45.2,29.59,WSW,248,10.0,14.0,97,0.02,,---,0.46,VWS V14.01,2013-04-12 17:08:00,
2013-04-12 13:13:00,46.0,45.2,29.59,WNW,292,10.0,18.0,97,0.02,,---,0.46,VWS V14.01,2013-04-12 17:13:00,
2013-04-12 13:18:00,46.0,45.2,29.59,WNW,292,18.0,19.0,97,0.02,,---,0.46,VWS V14.01,2013-04-12 17:18:00,
2013-04-12 13:23:00,46.0,44.9,29.60,WNW,292,10.0,19.0,96,0.02,,---,0.46,VWS V14.01,2013-04-12 17:23:00,
2013-04-12 13:28:00,46.0,44.7,29.60,West,270,16.0,20.0,95,0.02,,---,0.46,VWS V14.01,2013-04-12 17:28:00,
2013-04-12 13:33:00,46.0,44.9,29.60,WNW,292,8.0,20.0,96,0.02,,---,0.46,VWS V14.01,2013-04-12 17:33:00,
2013-04-12 13:38:00,46.0,44.7,29.61,WNW,292,10.0,20.0,95,0.02,,---,0.46,VWS V14.01,2013-04-12 17:38:00,
2013-04-12 13:44:00,46.0,44.4,29.61,West,270,10.0,19.0,94,0.01,,---,0.46,VWS V14.01,2013-04-12 17:44:00,
2013-04-12 13:49:00,46.0,44.4,29.61,WSW,248,11.0,19.0,94,0.01,,---,0.46,VWS V14.01,2013-04-12 17:49:00,
2013-04-12 13:54:00,45.0,43.1,29.62,WSW,248,16.0,21.0,93,0.01,,---,0.46,VWS V14.01,2013-04-12 17:54:00,
2013-04-12 13:59:00,45.0,42.8,29.62,WSW,248,12.0,21.0,92,0.01,,---,0.46,VWS V14.01,2013-04-12 17:59:00,
2013-04-12 14:04:00,45.0,42.8,29.62,WNW,292,13.0,16.0,92,0.00,,---,0.46,VWS V14.01,2013-04-12 18:04:00,
2013-04-12 14:09:00,45.0,42.8,29.63,West,270,10.0,19.0,92,0.00,,---,0.46,VWS V14.01,2013-04-12 18:09:00,
2013-04-12 14:14:00,45.0,42.8,29.63,WSW,248,11.0,19.0,92,0.00,,---,0.46,VWS V14.01,2013-04-12 18:14:00,
2013-04-12 14:20:00,45.0,42.5,29.63,WNW,292,16.0,19.0,91,0.00,,---,0.46,VWS V14.01,2013-04-12 18:20:00,
2013-04-12 14:25:00,45.0,42.5,29.63,WNW,292,14.0,15.0,91,0.00,,---,0.46,VWS V14.01,2013-04-12 18:25:00,
2013-04-12 14:30:00,45.0,42.5,29.64,West,270,15.0,16.0,91,0.00,,---,0.46,VWS V14.01,2013-04-12 18:30:00,
2013-04-12 15:26:00,43.0,40.6,29.66,West,270,10.0,18.0,91,0.00,,---,0.46,VWS V14.01,2013-04-12 19:26:00,
2013-04-12 15:27:00,44.0,41.8,29.66,WSW,248,13.0,18.0,92,0.00,,---,0.46,VWS V14.01,2013-04-12 19:27:00,
2013-04-12 15:28:00,44.0,41.8,29.66,West,270,10.0,18.0,92,0.00,,---,0.46,VWS V14.01,2013-04-12 19:28:00,
2013-04-12 15:33:00,43.0,40.6,29.66,WNW,292,13.0,22.0,91,0.00,,---,0.46,VWS V14.01,2013-04-12 19:33:00,
2013-04-12 15:38:00,43.0,40.8,29.66,WSW,248,8.0,22.0,92,0.00,,---,0.46,VWS V14.01,2013-04-12 19:38:00,
2013-04-12 15:43:00,43.0,40.8,29.66,WSW,248,10.0,13.0,92,0.00,,---,0.46,VWS V14.01,2013-04-12 19:43:00,
2013-04-12 15:48:00,43.0,40.6,29.66,West,270,10.0,19.0,91,0.00,,---,0.46,VWS V14.01,2013-04-12 19:48:00,
2013-04-12 15:53:00,43.0,40.3,29.66,West,270,11.0,19.0,90,0.00,,---,0.46,VWS V14.01,2013-04-12 19:53:00,
2013-04-12 15:58:00,44.0,41.3,29.66,WSW,248,10.0,19.0,90,0.00,,---,0.46,VWS V14.01,2013-04-12 19:58:00,
2013-04-12 16:03:00,44.0,41.3,29.66,WNW,292,11.0,13.0,90,0.00,,---,0.46,VWS V14.01,2013-04-12 20:03:00,
2013-04-12 16:08:00,44.0,41.0,29.66,West,270,6.0,14.0,89,0.00,,---,0.46,VWS V14.01,2013-04-12 20:08:00,
2013-04-12 16:13:00,44.0,41.0,29.66,WNW,292,8.0,14.0,89,0.00,,---,0.46,VWS V14.01,2013-04-12 20:13:00,
2013-04-12 16:18:00,44.0,41.0,29.66,West,270,12.0,14.0,89,0.00,,---,0.46,VWS V14.01,2013-04-12 20:18:00,
2013-04-12 16:23:00,45.0,42.0,29.66,NNW,338,7.0,12.0,89,0.00,,---,0.46,VWS V14.01,2013-04-12 20:23:00,
2013-04-12 16:28:00,43.0,39.7,29.66,NNW,338,3.0,14.0,88,0.00,,---,0.46,VWS V14.01,2013-04-12 20:28:00,
2013-04-12 16:33:00,42.0,39.0,29.66,West,270,11.0,14.0,89,0.00,,---,0.46,VWS V14.01,2013-04-12 20:33:00,
2013-04-12 16:39:00,42.0,39.3,29.67,NNW,338,3.0,14.0,90,0.00,,---,0.46,VWS V14.01,2013-04-12 20:39:00,
2013-04-12 16:44:00,41.0,38.6,29.67,NNW,338,4.0,14.0,91,0.00,,---,0.46,VWS V14.01,2013-04-12 20:44:00,
2013-04-12 16:49:00,41.0,38.9,29.67,NW,315,4.0,14.0,92,0.00,,---,0.46,VWS V14.01,2013-04-12 20:49:00,
2013-04-12 16:54:00,40.0,37.9,29.68,NW,315,7.0,17.0,92,0.00,,---,0.46,VWS V14.01,2013-04-12 20:54:00,
2013-04-12 16:59:00,40.0,38.1,29.68,NW,315,3.0,17.0,93,0.00,,---,0.46,VWS V14.01,2013-04-12 20:59:00,
2013-04-12 17:04:00,40.0,38.1,29.68,NW,315,3.0,14.0,93,0.00,,---,0.46,VWS V14.01,2013-04-12 21:04:00,
2013-04-12 17:09:00,40.0,38.1,29.69,NNW,338,2.0,14.0,93,0.00,,---,0.46,VWS V14.01,2013-04-12 21:09:00,
2013-04-12 17:15:00,40.0,38.4,29.69,WNW,292,14.0,15.0,94,0.00,,---,0.46,VWS V14.01,2013-04-12 21:15:00,
2013-04-12 17:20:00,39.0,37.4,29.69,NNW,338,2.0,16.0,94,0.00,,---,0.46,VWS V14.01,2013-04-12 21:20:00,
2013-04-12 17:25:00,39.0,37.7,29.70,WNW,292,9.0,15.0,95,0.00,,---,0.46,VWS V14.01,2013-04-12 21:25:00,
2013-04-12 17:30:00,39.0,37.7,29.70,NW,315,10.0,15.0,95,0.00,,---,0.46,VWS V14.01,2013-04-12 21:30:00,
2013-04-12 17:35:00,38.0,36.7,29.71,NW,315,13.0,15.0,95,0.00,,---,0.46,VWS V14.01,2013-04-12 21:35:00,
2013-04-12 17:40:00,38.0,36.7,29.71,WNW,292,13.0,19.0,95,0.00,,---,0.46,VWS V14.01,2013-04-12 21:40:00,
2013-04-12 17:45:00,38.0,36.7,29.72,WNW,292,11.0,18.0,95,0.00,,---,0.46,VWS V14.01,2013-04-12 21:45:00,
2013-04-12 17:50:00,38.0,36.7,29.72,WNW,292,5.0,18.0,95,0.00,,---,0.46,VWS V14.01,2013-04-12 21:50:00,
2013-04-12 17:55:00,38.0,36.7,29.72,WNW,292,15.0,18.0,95,0.00,,---,0.46,VWS V14.01,2013-04-12 21:55:00,
2013-04-12 18:00:00,38.0,36.7,29.72,WNW,292,8.0,18.0,95,0.00,,---,0.46,VWS V14.01,2013-04-12 22:00:00,
2013-04-12 18:05:00,37.0,35.7,29.72,WNW,292,11.0,18.0,95,0.00,,---,0.46,VWS V14.01,2013-04-12 22:05:00,
2013-04-12 18:10:00,37.0,35.7,29.73,WNW,292,10.0,19.0,95,0.00,,---,0.46,VWS V14.01,2013-04-12 22:10:00,
2013-04-12 18:15:00,37.0,35.7,29.73,WNW,292,7.0,19.0,95,0.01,,---,0.47,VWS V14.01,2013-04-12 22:15:00,
2013-04-12 18:20:00,37.0,35.7,29.73,WNW,292,14.0,14.0,95,0.01,,---,0.47,VWS V14.01,2013-04-12 22:20:00,
2013-04-12 18:25:00,37.0,35.4,29.73,WNW,292,16.0,20.0,94,0.01,,---,0.47,VWS V14.01,2013-04-12 22:25:00,
2013-04-12 18:30:00,37.0,35.4,29.74,West,270,13.0,20.0,94,0.01,,---,0.47,VWS V14.01,2013-04-12 22:30:00,
2013-04-12 18:36:00,37.0,35.4,29.74,WNW,292,14.0,20.0,94,0.01,,---,0.47,VWS V14.01,2013-04-12 22:36:00,
2013-04-12 18:41:00,37.0,35.4,29.74,WNW,292,14.0,16.0,94,0.01,,---,0.47,VWS V14.01,2013-04-12 22:41:00,
2013-04-12 18:46:00,37.0,35.7,29.74,WNW,292,11.0,16.0,95,0.02,,---,0.48,VWS V14.01,2013-04-12 22:46:00,
2013-04-12 18:51:00,37.0,35.7,29.74,WNW,292,6.0,16.0,95,0.02,,---,0.48,VWS V14.01,2013-04-12 22:51:00,
2013-04-12 18:56:00,37.0,35.7,29.75,WNW,292,10.0,16.0,95,0.02,,---,0.48,VWS V14.01,2013-04-12 22:56:00,
2013-04-12 19:01:00,37.0,36.0,29.74,WNW,292,10.0,10.0,96,0.02,,---,0.48,VWS V14.01,2013-04-12 23:01:00,
2013-04-12 19:06:00,37.0,35.7,29.74,WNW,292,6.0,11.0,95,0.02,,---,0.48,VWS V14.01,2013-04-12 23:06:00,
2013-04-12 19:11:00,37.0,36.0,29.74,WNW,292,8.0,11.0,96,0.02,,---,0.48,VWS V14.01,2013-04-12 23:11:00,
2013-04-12 19:16:00,37.0,35.7,29.75,WNW,292,7.0,13.0,95,0.02,,---,0.48,VWS V14.01,2013-04-12 23:16:00,
2013-04-12 19:21:00,37.0,35.7,29.74,WNW,292,10.0,10.0,95,0.01,,---,0.48,VWS V14.01,2013-04-12 23:21:00,
2013-04-12 19:26:00,37.0,35.7,29.75,WNW,292,18.0,19.0,95,0.01,,---,0.48,VWS V14.01,2013-04-12 23:26:00,
2013-04-12 19:31:00,37.0,35.7,29.75,WNW,292,6.0,21.0,95,0.01,,---,0.48,VWS V14.01,2013-04-12 23:31:00,
2013-04-12 19:36:00,37.0,35.7,29.76,WNW,292,10.0,21.0,95,0.01,,---,0.48,VWS V14.01,2013-04-12 23:36:00,
2013-04-12 19:41:00,37.0,35.7,29.76,West,270,10.0,16.0,95,0.01,,---,0.48,VWS V14.01,2013-04-12 23:41:00,
2013-04-12 19:47:00,37.0,35.7,29.76,WNW,292,6.0,16.0,95,0.01,,---,0.48,VWS V14.01,2013-04-12 23:47:00,
2013-04-12 19:52:00,37.0,35.7,29.76,WSW,248,8.0,16.0,95,0.01,,---,0.48,VWS V14.01,2013-04-12 23:52:00,
2013-04-12 19:57:00,37.0,35.7,29.77,West,270,5.0,16.0,95,0.01,,---,0.48,VWS V14.01,2013-04-12 23:57:00,
2013-04-12 20:02:00,37.0,35.7,29.77,WSW,248,10.0,13.0,95,0.00,,---,0.48,VWS V14.01,2013-04-13 00:02:00,
2013-04-12 20:07:00,37.0,35.7,29.77,West,270,10.0,17.0,95,0.00,,---,0.48,VWS V14.01,2013-04-13 00:07:00,
2013-04-12 20:12:00,37.0,35.7,29.77,WNW,292,6.0,17.0,95,0.00,,---,0.48,VWS V14.01,2013-04-13 00:12:00,
2013-04-12 20:17:00,37.0,35.7,29.77,WSW,248,6.0,17.0,95,0.00,,---,0.48,VWS V14.01,2013-04-13 00:17:00,
2013-04-12 20:22:00,37.0,35.7,29.78,WSW,248,9.0,10.0,95,0.00,,---,0.48,VWS V14.01,2013-04-13 00:22:00,
2013-04-12 20:27:00,37.0,35.4,29.78,SW,225,8.0,15.0,94,0.00,,---,0.48,VWS V14.01,2013-04-13 00:27:00,
2013-04-12 20:32:00,37.0,35.4,29.78,WSW,248,8.0,15.0,94,0.00,,---,0.48,VWS V14.01,2013-04-13 00:32:00,
2013-04-12 20:37:00,37.0,35.4,29.78,WSW,248,13.0,15.0,94,0.00,,---,0.48,VWS V14.01,2013-04-13 00:37:00,
2013-04-12 20:42:00,38.0,36.2,29.78,WNW,292,6.0,8.0,93,0.00,,---,0.48,VWS V14.01,2013-04-13 00:42:00,
2013-04-12 20:47:00,38.0,36.2,29.79,West,270,8.0,10.0,93,0.00,,---,0.48,VWS V14.01,2013-04-13 00:47:00,
2013-04-12 20:52:00,38.0,36.2,29.79,WNW,292,8.0,10.0,93,0.00,,---,0.48,VWS V14.01,2013-04-13 00:52:00,
2013-04-12 20:57:00,37.0,35.2,29.80,WNW,292,8.0,13.0,93,0.00,,---,0.48,VWS V14.01,2013-04-13 00:57:00,
2013-04-12 21:02:00,37.0,35.4,29.80,SW,225,10.0,11.0,94,0.01,,---,0.49,VWS V14.01,2013-04-13 01:02:00,
2013-04-12 21:07:00,37.0,34.9,29.80,SW,225,6.0,19.0,92,0.01,,---,0.49,VWS V14.01,2013-04-13 01:07:00,
2013-04-12 21:13:00,37.0,34.6,29.79,West,270,8.0,20.0,91,0.01,,---,0.49,VWS V14.01,2013-04-13 01:13:00,
2013-04-12 21:18:00,37.0,34.3,29.79,WSW,248,9.0,20.0,90,0.01,,---,0.49,VWS V14.01,2013-04-13 01:18:00,
2013-04-12 21:23:00,37.0,33.8,29.80,WSW,248,11.0,11.0,88,0.01,,---,0.49,VWS V14.01,2013-04-13 01:23:00,
2013-04-12 21:28:00,38.0,34.8,29.80,WSW,248,5.0,13.0,88,0.01,,---,0.49,VWS V14.01,2013-04-13 01:28:00,
2013-04-12 21:33:00,38.0,34.8,29.80,SW,225,6.0,18.0,88,0.01,,---,0.49,VWS V14.01,2013-04-13 01:33:00,
2013-04-12 21:38:00,38.0,34.5,29.80,WSW,248,10.0,18.0,87,0.01,,---,0.49,VWS V14.01,2013-04-13 01:38:00,
2013-04-12 21:43:00,38.0,34.5,29.80,WSW,248,8.0,10.0,87,0.01,,---,0.49,VWS V14.01,2013-04-13 01:43:00,
2013-04-12 21:48:00,38.0,34.8,29.80,SSW,202,8.0,11.0,88,0.01,,---,0.49,VWS V14.01,2013-04-13 01:48:00,
2013-04-12 21:53:00,38.0,34.8,29.80,SW,225,5.0,13.0,88,0.01,,---,0.49,VWS V14.01,2013-04-13 01:53:00,
2013-04-12 21:58:00,38.0,34.8,29.79,SW,225,9.0,13.0,88,0.01,,---,0.49,VWS V14.01,2013-04-13 01:58:00,
2013-04-12 22:03:00,38.0,34.8,29.79,SSW,202,5.0,8.0,88,0.00,,---,0.49,VWS V14.01,2013-04-13 02:03:00,
2013-04-12 22:08:00,37.0,33.8,29.80,WSW,248,3.0,11.0,88,0.00,,---,0.49,VWS V14.01,2013-04-13 02:08:00,
2013-04-12 22:14:00,38.0,34.8,29.79,SSW,202,3.0,11.0,88,0.00,,---,0.49,VWS V14.01,2013-04-13 02:14:00,
2013-04-12 22:19:00,37.0,33.5,29.80,SW,225,6.0,11.0,87,0.00,,---,0.49,VWS V14.01,2013-04-13 02:19:00,
2013-04-12 22:24:00,38.0,34.2,29.80,SW,225,6.0,12.0,86,0.00,,---,0.49,VWS V14.01,2013-04-13 02:24:00,
2013-04-12 22:29:00,38.0,34.2,29.80,SW,225,3.0,12.0,86,0.00,,---,0.49,VWS V14.01,2013-04-13 02:29:00,
2013-04-12 22:34:00,38.0,33.9,29.80,WSW,248,8.0,12.0,85,0.00,,---,0.49,VWS V14.01,2013-04-13 02:34:00,
2013-04-12 22:39:00,38.0,33.9,29.81,WSW,248,4.0,12.0,85,0.00,,---,0.49,VWS V14.01,2013-04-13 02:39:00,
2013-04-12 22:44:00,38.0,33.9,29.81,SW,225,5.0,6.0,85,0.00,,---,0.49,VWS V14.01,2013-04-13 02:44:00,
2013-04-12 22:49:00,38.0,33.9,29.80,SSW,202,3.0,6.0,85,0.00,,---,0.49,VWS V14.01,2013-04-13 02:49:00,
2013-04-12 22:54:00,38.0,33.9,29.80,SW,225,4.0,9.0,85,0.00,,---,0.49,VWS V14.01,2013-04-13 02:54:00,
2013-04-12 23:00:00,38.0,33.9,29.80,SW,225,5.0,9.0,85,0.00,,---,0.49,VWS V14.01,2013-04-13 03:00:00,
2013-04-12 23:05:00,38.0,33.9,29.80,SW,225,4.0,6.0,85,0.00,,---,0.49,VWS V14.01,2013-04-13 03:05:00,
2013-04-12 23:10:00,38.0,33.9,29.81,SW,225,4.0,7.0,85,0.00,,---,0.49,VWS V14.01,2013-04-13 03:10:00,
2013-04-12 23:15:00,38.0,33.9,29.80,SW,225,4.0,9.0,85,0.00,,---,0.49,VWS V14.01,2013-04-13 03:15:00,
2013-04-12 23:20:00,38.0,33.9,29.80,WSW,248,3.0,9.0,85,0.00,,---,0.49,VWS V14.01,2013-04-13 03:20:00,
2013-04-12 23:25:00,38.0,33.9,29.80,WSW,248,6.0,10.0,85,0.00,,---,0.49,VWS V14.01,2013-04-13 03:25:00,
2013-04-12 23:30:00,38.0,33.9,29.80,SSW,202,6.0,10.0,85,0.00,,---,0.49,VWS V14.01,2013-04-13 03:30:00,
2013-04-12 23:35:00,38.0,33.9,29.80,WSW,248,8.0,10.0,85,0.00,,---,0.49,VWS V14.01,2013-04-13 03:35:00,
2013-04-12 23:40:00,38.0,33.6,29.80,SW,225,9.0,13.0,84,0.00,,---,0.49,VWS V14.01,2013-04-13 03:40:00,
2013-04-12 23:45:00,38.0,33.6,29.80,WSW,248,11.0,15.0,84,0.00,,---,0.49,VWS V14.01,2013-04-13 03:45:00,
2013-04-12 23:50:00,38.0,33.0,29.80,WSW,248,8.0,15.0,82,0.00,,---,0.49,VWS V14.01,2013-04-13 03:50:00,
2013-04-12 23:56:00,38.0,33.0,29.80,WSW,248,7.0,15.0,82,0.00,,---,0.49,VWS V14.01,2013-04-13 03:56:00,